Time,TemperatureF,DewpointF,PressureIn,WindDirection,WindDirectionDegrees,WindSpeedMPH,WindSpeedGustMPH,Humidity,HourlyPrecipIn,Conditions,Clouds,dailyrainin,SolarRadiationWatts/m^2,SoftwareType,DateUTC
2013-05-22 00:02:00,44.0,42.0,-100.00,NE,44,7.0,19.0,91,0.00,,,0.46,0.000000,,2013-05-22 05:02:00,
2013-05-22 00:32:00,44.0,42.0,-100.00,NE,34,9.0,16.0,93,0.01,,,0.38,0.000000,,2013-05-22 05:32:00,
2013-05-22 00:42:00,44.0,42.0,-100.00,NE,34,9.0,16.0,93,0.01,,,0.38,0.000000,,2013-05-22 05:42:00,
2013-05-22 00:52:00,44.0,42.0,-100.00,NE,34,9.0,16.0,93,0.01,,,0.38,0.000000,,2013-05-22 05:52:00,
2013-05-22 01:01:00,44.0,42.0,-100.00,NE,34,9.0,16.0,93,0.01,,,0.38,0.000000,,2013-05-22 06:01:00,
2013-05-22 01:32:00,43.0,41.0,-100.00,NE,43,8.0,18.0,92,0.00,,,0.37,0.000000,,2013-05-22 06:32:00,
2013-05-22 01:42:00,43.0,41.0,-100.00,NE,43,8.0,18.0,92,0.00,,,0.37,0.000000,,2013-05-22 06:42:00,
2013-05-22 01:52:00,43.0,41.0,-100.00,NE,43,8.0,18.0,92,0.00,,,0.37,0.000000,,2013-05-22 06:52:00,
2013-05-22 02:01:00,43.0,41.0,-100.00,NE,43,8.0,18.0,92,0.00,,,0.37,0.000000,,2013-05-22 07:01:00,
2013-05-22 02:32:00,43.0,41.0,-100.00,NE,39,6.0,14.0,92,0.00,,,0.24,0.000000,,2013-05-22 07:32:00,
2013-05-22 02:42:00,43.0,41.0,-100.00,NE,39,6.0,14.0,92,0.00,,,0.24,0.000000,,2013-05-22 07:42:00,
2013-05-22 02:53:00,43.0,41.0,-100.00,NE,39,6.0,14.0,92,0.00,,,0.24,0.000000,,2013-05-22 07:53:00,
2013-05-22 03:02:00,43.0,41.0,-100.00,NE,39,6.0,14.0,92,0.00,,,0.24,0.000000,,2013-05-22 08:02:00,
2013-05-22 03:32:00,43.0,41.0,-100.00,NE,46,7.0,15.0,94,0.00,,,-99.99,0.000000,,2013-05-22 08:32:00,
2013-05-22 03:42:00,43.0,41.0,-100.00,NE,46,7.0,15.0,94,0.00,,,-99.99,0.000000,,2013-05-22 08:42:00,
2013-05-22 03:52:00,43.0,41.0,-100.00,NE,46,7.0,15.0,94,0.00,,,-99.99,0.000000,,2013-05-22 08:52:00,
2013-05-22 04:01:00,43.0,41.0,-100.00,NE,46,7.0,15.0,94,0.00,,,-99.99,0.000000,,2013-05-22 09:01:00,
2013-05-22 04:33:00,42.0,41.0,-100.00,NE,39,6.0,14.0,96,0.03,,,0.19,0.000000,,2013-05-22 09:33:00,
2013-05-22 04:42:00,42.0,41.0,-100.00,NE,39,6.0,14.0,96,0.03,,,0.19,0.000000,,2013-05-22 09:42:00,
2013-05-22 04:53:00,42.0,41.0,-100.00,NE,39,6.0,14.0,96,0.03,,,0.19,0.000000,,2013-05-22 09:53:00,
2013-05-22 05:03:00,42.0,41.0,-100.00,NE,39,6.0,14.0,96,0.03,,,0.19,0.000000,,2013-05-22 10:03:00,
2013-05-22 05:33:00,43.0,42.0,-100.00,NE,39,6.0,11.0,95,0.02,,,0.21,0.000000,,2013-05-22 10:33:00,
2013-05-22 05:42:00,43.0,42.0,-100.00,NE,39,6.0,11.0,95,0.02,,,0.21,0.000000,,2013-05-22 10:42:00,
2013-05-22 05:52:00,43.0,42.0,-100.00,NE,39,6.0,11.0,95,0.02,,,0.21,0.000000,,2013-05-22 10:52:00,
2013-05-22 06:02:00,43.0,42.0,-100.00,NE,39,6.0,11.0,95,0.02,,,0.21,0.000000,,2013-05-22 11:02:00,
2013-05-22 06:32:00,43.0,42.0,-100.00,NE,39,6.0,12.0,95,0.00,,,0.21,2.000000,,2013-05-22 11:32:00,
2013-05-22 06:42:00,43.0,42.0,-100.00,NE,39,6.0,12.0,95,0.00,,,0.21,2.000000,,2013-05-22 11:42:00,
2013-05-22 06:52:00,43.0,42.0,-100.00,NE,39,6.0,12.0,95,0.00,,,0.21,2.000000,,2013-05-22 11:52:00,
2013-05-22 07:02:00,43.0,42.0,-100.00,NE,39,6.0,12.0,95,0.00,,,0.21,2.000000,,2013-05-22 12:02:00,
2013-05-22 07:32:00,43.0,41.0,-100.00,NE,35,7.0,12.0,93,0.00,,,0.21,20.000000,,2013-05-22 12:32:00,
2013-05-22 07:42:00,43.0,41.0,-100.00,NE,35,7.0,12.0,93,0.00,,,0.21,20.000000,,2013-05-22 12:42:00,
2013-05-22 07:52:00,43.0,41.0,-100.00,NE,35,7.0,12.0,93,0.00,,,0.21,20.000000,,2013-05-22 12:52:00,
2013-05-22 08:01:00,43.0,41.0,-100.00,NE,35,7.0,12.0,93,0.00,,,0.21,20.000000,,2013-05-22 13:01:00,
2013-05-22 09:32:00,45.0,42.0,-100.00,NE,35,9.0,16.0,89,-99.99,,,0.21,73.000000,,2013-05-22 14:32:00,
2013-05-22 09:42:00,45.0,42.0,-100.00,NE,35,9.0,16.0,89,-99.99,,,0.21,73.000000,,2013-05-22 14:42:00,
2013-05-22 09:53:00,45.0,42.0,-100.00,NE,35,9.0,16.0,89,-99.99,,,0.21,73.000000,,2013-05-22 14:53:00,
2013-05-22 10:01:00,45.0,42.0,-100.00,NE,35,9.0,16.0,89,-99.99,,,0.21,73.000000,,2013-05-22 15:01:00,
2013-05-22 10:33:00,47.0,43.0,-100.00,NE,41,10.0,16.0,86,0.00,,,-99.99,120.000000,,2013-05-22 15:33:00,
2013-05-22 10:43:00,47.0,43.0,-100.00,NE,41,10.0,16.0,86,0.00,,,-99.99,120.000000,,2013-05-22 15:43:00,
2013-05-22 10:53:00,47.0,43.0,-100.00,NE,41,10.0,16.0,86,0.00,,,-99.99,120.000000,,2013-05-22 15:53:00,
2013-05-22 11:03:00,47.0,43.0,-100.00,NE,41,10.0,16.0,86,0.00,,,-99.99,120.000000,,2013-05-22 16:03:00,
2013-05-22 11:33:00,48.0,44.0,-100.00,NNE,33,10.0,18.0,85,0.00,,,0.21,126.000000,,2013-05-22 16:33:00,
2013-05-22 11:42:00,48.0,44.0,-100.00,NNE,33,10.0,18.0,85,0.00,,,0.21,126.000000,,2013-05-22 16:42:00,
2013-05-22 11:52:00,48.0,44.0,-100.00,NNE,33,10.0,18.0,85,0.00,,,0.21,126.000000,,2013-05-22 16:52:00,
2013-05-22 12:02:00,48.0,44.0,-100.00,NNE,33,10.0,18.0,85,0.00,,,0.21,126.000000,,2013-05-22 17:02:00,
2013-05-22 12:33:00,48.0,44.0,-100.00,NNE,31,10.0,20.0,85,0.00,,,0.21,152.000000,,2013-05-22 17:33:00,
2013-05-22 12:42:00,48.0,44.0,-100.00,NNE,31,10.0,20.0,85,0.00,,,0.21,152.000000,,2013-05-22 17:42:00,
2013-05-22 12:54:00,48.0,44.0,-100.00,NNE,31,10.0,20.0,85,0.00,,,0.21,152.000000,,2013-05-22 17:54:00,
2013-05-22 13:02:00,48.0,44.0,-100.00,NNE,31,10.0,20.0,85,0.00,,,0.21,152.000000,,2013-05-22 18:02:00,
2013-05-22 13:34:00,48.0,44.0,-100.00,NE,34,11.0,22.0,85,0.00,,,0.21,163.000000,,2013-05-22 18:34:00,
2013-05-22 13:42:00,48.0,44.0,-100.00,NE,34,11.0,22.0,85,0.00,,,0.21,163.000000,,2013-05-22 18:42:00,
2013-05-22 13:52:00,48.0,44.0,-100.00,NE,34,11.0,22.0,85,0.00,,,0.21,163.000000,,2013-05-22 18:52:00,
2013-05-22 14:02:00,48.0,44.0,-100.00,NE,34,11.0,22.0,85,0.00,,,0.21,163.000000,,2013-05-22 19:02:00,
2013-05-22 14:32:00,49.0,46.0,-100.00,NE,36,12.0,20.0,88,0.00,,,-99.99,214.000000,,2013-05-22 19:32:00,
2013-05-22 14:42:00,49.0,46.0,-100.00,NE,36,12.0,20.0,88,0.00,,,-99.99,214.000000,,2013-05-22 19:42:00,
2013-05-22 14:52:00,49.0,46.0,-100.00,NE,36,12.0,20.0,88,0.00,,,-99.99,214.000000,,2013-05-22 19:52:00,
2013-05-22 15:02:00,49.0,46.0,-100.00,NE,36,12.0,20.0,88,0.00,,,-99.99,214.000000,,2013-05-22 20:02:00,
2013-05-22 15:32:00,49.0,45.0,-100.00,NNE,32,11.0,21.0,87,0.00,,,0.21,148.000000,,2013-05-22 20:32:00,
2013-05-22 15:42:00,49.0,45.0,-100.00,NNE,32,11.0,21.0,87,0.00,,,0.21,148.000000,,2013-05-22 20:42:00,
2013-05-22 15:52:00,49.0,45.0,-100.00,NNE,32,11.0,21.0,87,0.00,,,0.21,148.000000,,2013-05-22 20:52:00,
2013-05-22 16:01:00,49.0,45.0,-100.00,NNE,32,11.0,21.0,87,0.00,,,0.21,148.000000,,2013-05-22 21:01:00,
2013-05-22 16:33:00,48.0,45.0,-100.00,NNE,33,11.0,23.0,91,0.02,,,0.23,142.000000,,2013-05-22 21:33:00,
2013-05-22 16:42:00,48.0,45.0,-100.00,NNE,33,11.0,23.0,91,0.02,,,0.23,142.000000,,2013-05-22 21:42:00,
2013-05-22 16:53:00,48.0,45.0,-100.00,NNE,33,11.0,23.0,91,0.02,,,0.23,142.000000,,2013-05-22 21:53:00,
2013-05-22 17:03:00,48.0,45.0,-100.00,NNE,33,11.0,23.0,91,0.02,,,0.23,142.000000,,2013-05-22 22:03:00,
2013-05-22 18:32:00,48.0,43.0,-100.00,NE,38,9.0,22.0,84,-99.99,,,0.14,154.000000,,2013-05-22 23:32:00,
2013-05-22 18:42:00,48.0,43.0,-100.00,NE,38,9.0,22.0,84,-99.99,,,0.14,154.000000,,2013-05-22 23:42:00,
2013-05-22 18:53:00,48.0,43.0,-100.00,NE,38,9.0,22.0,84,-99.99,,,0.14,154.000000,,2013-05-22 23:53:00,
2013-05-22 19:01:00,48.0,43.0,-100.00,NE,38,9.0,22.0,84,-99.99,,,0.14,154.000000,,2013-05-23 00:01:00,
2013-05-22 19:32:00,50.0,44.0,-100.00,NE,53,9.0,19.0,81,0.00,,,0.10,82.000000,,2013-05-23 00:32:00,
2013-05-22 19:42:00,50.0,44.0,-100.00,NE,53,9.0,19.0,81,0.00,,,0.10,82.000000,,2013-05-23 00:42:00,
2013-05-22 19:52:00,50.0,44.0,-100.00,NE,53,9.0,19.0,81,0.00,,,0.10,82.000000,,2013-05-23 00:52:00,
2013-05-22 20:01:00,50.0,44.0,-100.00,NE,53,9.0,19.0,81,0.00,,,0.10,82.000000,,2013-05-23 01:01:00,
2013-05-22 20:32:00,49.0,44.0,-100.00,North,11,5.0,14.0,82,0.00,,,0.10,33.000000,,2013-05-23 01:32:00,
2013-05-22 20:42:00,49.0,44.0,-100.00,North,11,5.0,14.0,82,0.00,,,0.10,33.000000,,2013-05-23 01:42:00,
2013-05-22 20:52:00,49.0,44.0,-100.00,North,11,5.0,14.0,82,0.00,,,0.10,33.000000,,2013-05-23 01:52:00,
2013-05-22 21:01:00,49.0,44.0,-100.00,North,11,5.0,14.0,82,0.00,,,0.10,33.000000,,2013-05-23 02:01:00,
2013-05-22 21:32:00,49.0,43.0,-100.00,NNE,15,4.0,10.0,81,0.00,,,-99.99,33.000000,,2013-05-23 02:32:00,
2013-05-22 21:42:00,49.0,43.0,-100.00,NNE,15,4.0,10.0,81,0.00,,,-99.99,33.000000,,2013-05-23 02:42:00,
2013-05-22 21:52:00,49.0,43.0,-100.00,NNE,15,4.0,10.0,81,0.00,,,-99.99,33.000000,,2013-05-23 02:52:00,
2013-05-22 22:01:00,49.0,43.0,-100.00,NNE,15,4.0,10.0,81,0.00,,,-99.99,33.000000,,2013-05-23 03:01:00,
2013-05-22 22:33:00,46.0,41.0,-100.00,North,2,3.0,9.0,84,0.00,,,0.10,0.000000,,2013-05-23 03:33:00,
2013-05-22 22:43:00,46.0,41.0,-100.00,North,2,3.0,9.0,84,0.00,,,0.10,0.000000,,2013-05-23 03:43:00,
2013-05-22 22:53:00,46.0,41.0,-100.00,North,2,3.0,9.0,84,0.00,,,0.10,0.000000,,2013-05-23 03:53:00,
2013-05-22 23:03:00,46.0,41.0,-100.00,North,2,3.0,9.0,84,0.00,,,0.10,0.000000,,2013-05-23 04:03:00,
2013-05-22 23:33:00,46.0,39.0,-100.00,NNE,15,4.0,9.0,75,0.00,,,0.10,0.000000,,2013-05-23 04:33:00,
2013-05-22 23:43:00,46.0,39.0,-100.00,NNE,15,4.0,9.0,75,0.00,,,0.10,0.000000,,2013-05-23 04:43:00,
2013-05-22 23:52:00,46.0,39.0,-100.00,NNE,15,4.0,9.0,75,0.00,,,0.10,0.000000,,2013-05-23 04:52:00,